Location: Detroit
(42.3310°N, 83.0460°W)
Time: 08:39:47
(UTC-04:00)

Explorer 11/Cluster Stage 4 - Pass Details

Date: 12 February 2023
Orbit: 466 x 1241 km, 28.8° (Epoch: 02 April)

Event Time Altitude Azimuth Distance (km) Brightness Sun altitude
Exits shadow 06:25:55 - 239° (WSW) 3,055 9.1 -12.9°
Reaches altitude 10° 06:26:41 10° 234° (SW) 2,922 9.1 -12.8°
Maximum altitude 06:30:48 16° 199° (SSW) 2,618 9.1 -12.0°
Drops below altitude 10° 06:35:12 10° 165° (SSE) 3,137 10.0 -11.2°
Sets 06:39:29 0° 146° (SE) 4,153 11.0 -10.4°
